EDT,Max TemperatureF,Mean TemperatureF,Min TemperatureF,Max Dew PointF,MeanDew PointF,Min DewpointF,Max Humidity, Mean Humidity, Min Humidity, Max Sea Level PressureIn, Mean Sea Level PressureIn, Min Sea Level PressureIn, Max VisibilityMiles, Mean VisibilityMiles, Min VisibilityMiles, Max Wind SpeedMPH, Mean Wind SpeedMPH, Max Gust SpeedMPH,PrecipitationIn, CloudCover, Events, WindDirDegrees
2013-9-1,76,68,59,68,63,57,100,82,64,29.88,29.81,29.73,10,6,0,10,5,12,0.01,5,Fog,128
2013-9-2,71,65,58,68,56,51,93,76,59,29.95,29.85,29.74,10,10,6,20,12,26,T,6,Rain,312
2013-9-3,76,65,54,54,52,50,86,64,41,30.02,29.97,29.94,10,10,10,16,10,21,0.00,3,,284
2013-9-4,82,69,55,64,58,51,93,74,54,30.13,30.04,30.00,10,10,10,18,10,26,0.00,1,,275
2013-9-5,69,58,47,51,47,43,86,66,45,30.30,30.25,30.14,10,10,10,13,5,17,0.00,0,,22
2013-9-6,76,62,48,55,50,44,86,65,43,30.30,30.20,30.05,10,10,10,14,7,17,0.00,0,,194
2013-9-7,76,70,63,69,62,53,97,82,67,30.04,29.95,29.90,10,9,5,16,9,20,0.07,5,Rain,230
2013-9-8,71,63,54,68,57,49,90,72,53,30.14,30.07,29.96,10,10,6,20,12,24,0.00,4,,49
2013-9-9,78,65,52,69,59,49,90,77,64,30.10,29.99,29.85,10,10,9,15,6,21,T,3,Rain,168
2013-9-10,95,84,73,71,67,63,87,62,36,29.96,29.90,29.83,10,10,8,24,13,32,0.00,0,,225
2013-9-11,87,76,65,69,64,63,87,68,48,30.00,29.97,29.94,10,10,10,17,8,22,0.00,1,,247
2013-9-12,77,66,54,63,54,41,93,68,43,30.01,29.93,29.89,10,10,10,25,13,30,0.00,3,,305
2013-9-13,62,53,43,45,41,35,86,63,39,30.17,30.10,30.01,10,10,10,23,9,25,0.00,4,,359
2013-9-14,70,54,38,46,40,37,93,62,31,30.21,30.14,30.08,10,10,10,17,7,22,0.00,0,,232
2013-9-15,61,57,52,55,50,44,100,79,57,30.15,30.10,30.05,10,8,1,13,7,17,0.10,5,Rain,222
2013-9-16,59,51,43,54,46,38,93,72,51,30.43,30.30,30.15,10,10,6,20,10,24,0.00,6,,22
2013-9-17,69,53,37,47,42,35,92,66,40,30.45,30.36,30.25,10,10,10,12,5,16,0.00,0,,144
2013-9-18,79,61,42,55,48,40,93,65,37,30.24,30.12,30.02,10,10,10,16,7,21,0.00,0,,176
2013-9-19,80,71,62,67,62,54,93,78,62,30.03,29.96,29.87,10,9,2,14,8,26,0.31,4,Rain,183
2013-9-20,78,72,65,70,66,62,97,83,69,29.87,29.77,29.71,10,8,2,21,9,25,0.19,6,Rain,215
2013-9-21,68,60,52,62,52,43,93,71,48,29.92,29.77,29.69,10,10,10,24,12,29,T,7,Rain,309
2013-9-22,60,52,44,43,40,36,89,66,43,30.13,30.03,29.93,10,10,10,17,7,22,0.00,5,,6
2013-9-23,63,54,45,45,43,40,86,66,46,30.22,30.17,30.13,10,10,10,13,3,15,0.00,4,,93
2013-9-24,67,54,41,50,45,39,96,72,48,30.19,30.12,30.04,10,10,7,13,4,16,0.00,0,,62
2013-9-25,69,56,42,54,47,40,96,74,52,30.06,30.04,30.01,10,10,10,15,6,21,0.00,1,,37
2013-9-26,75,59,43,55,47,42,100,69,38,30.17,30.09,30.04,10,6,0,12,5,16,0.00,3,Fog,15
2013-9-27,79,62,44,55,48,43,100,68,35,30.26,30.21,30.17,10,6,0,12,3,16,0.00,0,Fog,55
2013-9-28,80,65,49,58,52,48,100,69,37,30.22,30.15,29.99,10,6,0,17,9,23,0.00,1,Fog,141
2013-9-29,72,62,52,61,55,49,93,69,44,30.02,29.99,29.91,10,8,2,15,7,22,0.35,6,Rain,301
2013-9-30,70,60,49,55,51,48,100,74,47,30.04,30.01,29.93,10,4,0,13,3,15,0.00,4,Fog,175